Location: Chilton Park
(37.7711°N, 100.0276°W)
Time: 14:46:55
(UTC+00:00)

Cosmos 1898 Rocket - Pass Details

Date: 05 July 2022
Orbit: 753 x 783 km, 74.0° (Epoch: 18 August)

Event Time Altitude Azimuth Distance (km) Brightness Sun altitude
Rises 08:10:50 0° 340° (NNW) 3,212 7.4 -26.2°
Reaches altitude 10° 08:13:12 10° 339° (NNW) 2,283 6.5 -26.0°
Enters shadow 08:18:21 78° 256° (WSW) 776 3.3 -25.6°
